Date String (YYYY-MM-DD hh:mm:ss) UTC,Instrument flags,Ambient pressure (hPa),Sample flow (lpm),Bypass flow (lpm),Sample temperature (°C),Ambient temperature (°C),ASC tube jacket temperature (°C),LED temperature (°C),Box temperature (°C),Sample RH (%),Span deviation,Mass concentration (μg/m³),Mass concentration (μg/m³),Mass concentration (μg/m³)
DateTimeUTC,F1_M11,P_M11,Q1_M11,Q2_M11,T1_M11,T2_M11,T3_M11,T4_M11,T5_M11,U1_M11,ZSPAN_M11,X2_M11,X0_M11,X1_M11
2022-01-04 20:00:00,,0817.9,5.01,0.00,22.4,21.3,00.0,31.4,24.1,09.3,0000.0,0001.02,0005.14,0000.47
2022-01-04 20:01:00,,0817.8,5.01,0.00,22.4,21.4,00.0,31.4,24.1,09.1,0000.0,0000.99,0004.62,0000.46
2022-01-04 20:02:00,,0817.8,4.99,0.00,22.4,21.4,00.0,31.4,24.0,09.3,0000.0,0000.98,0003.17,0000.46
2022-01-04 20:03:00,,0817.9,5.00,0.00,22.4,21.4,00.0,31.4,24.0,09.5,0000.0,0001.02,0003.20,0000.46
2022-01-04 20:04:00,,0817.8,5.01,0.00,22.4,21.3,00.0,31.4,24.0,09.5,0000.0,0001.05,0003.37,0000.47
2022-01-04 20:05:00,,0817.9,5.00,0.00,22.4,21.4,00.0,31.4,24.0,09.5,0000.0,0001.12,0004.08,0000.48
2022-01-04 20:06:00,,0817.9,4.99,0.00,22.4,21.3,00.0,31.4,24.0,09.2,0000.0,0001.13,0003.93,0000.48
2022-01-04 20:07:00,,0817.8,5.00,0.00,22.4,21.3,00.0,31.4,24.1,08.9,0000.0,0001.15,0003.95,0000.48
2022-01-04 20:08:00,,0817.9,5.01,0.00,22.4,21.3,00.0,31.4,24.1,09.0,0000.0,0001.17,0004.08,0000.47
2022-01-04 20:09:00,,0817.9,5.00,0.00,22.4,21.3,00.0,31.4,24.1,09.6,0000.0,0001.21,0004.33,0000.47
2022-01-04 20:10:00,,0817.9,5.00,0.00,22.4,21.3,00.0,31.4,24.0,09.9,0000.0,0001.22,0004.63,0000.47
2022-01-04 20:11:00,,0817.7,5.00,0.00,22.4,21.4,00.0,31.4,24.1,09.8,0000.0,0001.18,0004.68,0000.48
2022-01-04 20:12:00,,0817.6,4.99,0.00,22.4,21.4,00.0,31.4,24.1,09.1,0000.0,0001.16,0004.66,0000.49
2022-01-04 20:13:00,,0817.6,5.01,0.00,22.4,21.5,00.0,31.4,24.1,09.0,0000.0,0001.15,0004.76,0000.49
2022-01-04 20:14:00,,0817.7,5.00,0.00,22.4,21.4,00.0,31.4,24.1,08.7,0000.0,0001.11,0005.00,0000.48
2022-01-04 20:15:00,,0817.6,4.99,0.00,22.4,21.4,00.0,31.4,24.1,09.0,0000.0,0001.10,0004.82,0000.48
2022-01-04 20:16:00,,0817.7,5.00,0.00,22.4,21.5,00.0,31.4,24.1,09.3,0000.0,0001.06,0004.31,0000.47
2022-01-04 20:17:00,,0817.8,5.00,0.00,22.4,21.4,00.0,31.4,24.0,09.3,0000.0,0001.03,0003.77,0000.47
2022-01-04 20:18:00,,0817.7,5.00,0.00,22.4,21.4,00.0,31.4,24.0,09.6,0000.0,0001.00,0004.01,0000.47
2022-01-04 20:19:00,,0817.9,5.00,0.00,22.4,21.4,00.0,31.4,24.0,09.4,0000.0,0001.01,0003.96,0000.46
2022-01-04 20:20:00,,0817.8,4.99,0.00,22.3,21.4,00.0,31.4,24.0,09.2,0000.0,0000.98,0003.85,0000.46
2022-01-04 20:21:00,,0817.8,5.00,0.00,22.4,21.4,00.0,31.4,24.0,09.0,0000.0,0000.99,0003.57,0000.47
2022-01-04 20:22:00,,0817.8,5.00,0.00,22.4,21.3,00.0,31.4,24.0,09.4,0000.0,0000.96,0003.33,0000.46
2022-01-04 20:23:00,,0817.9,5.01,0.00,22.4,21.3,00.0,31.4,24.0,09.5,0000.0,0000.95,0003.54,0000.46
2022-01-04 20:24:00,,0817.9,4.99,0.00,22.4,21.3,00.0,31.4,24.0,09.8,0000.0,0000.95,0003.40,0000.45
2022-01-04 20:25:00,,0817.7,5.02,0.00,22.4,21.3,00.0,31.4,24.0,09.7,0000.0,0000.91,0003.20,0000.46
2022-01-04 20:26:00,,0817.7,4.99,0.00,22.4,21.3,00.0,31.4,24.0,10.2,0000.0,0000.90,0004.53,0000.46
2022-01-04 20:27:00,,0817.7,5.00,0.00,22.3,21.4,00.0,31.4,24.0,09.9,0000.0,0000.91,0004.71,0000.46
2022-01-04 20:28:00,,0817.8,5.00,0.00,22.3,21.4,00.0,31.4,24.0,09.9,0000.0,0000.94,0004.87,0000.47
2022-01-04 20:29:00,,0818.0,5.01,0.00,22.3,21.4,00.0,31.4,23.9,09.4,0000.0,0000.92,0004.88,0000.47
2022-01-04 20:30:00,,0818.0,4.99,0.00,22.3,21.3,00.0,31.4,23.9,09.6,0000.0,0000.90,0006.23,0000.48
2022-01-04 20:31:00,,0817.9,5.01,0.00,22.3,21.3,00.0,31.4,23.9,09.8,0000.0,0000.94,0006.99,0000.48
2022-01-04 20:32:00,,0817.9,5.00,0.00,22.3,21.3,00.0,31.4,23.9,09.4,0000.0,0000.94,0007.15,0000.48
2022-01-04 20:33:00,,0817.9,5.00,0.00,22.3,21.2,00.0,31.4,23.9,09.6,0000.0,0000.97,0008.27,0000.48
2022-01-04 20:34:00,,0817.9,5.00,0.00,22.3,21.3,00.0,31.4,24.0,09.5,0000.0,0001.02,0008.64,0000.48
2022-01-04 20:35:00,,0818.0,4.99,0.00,22.3,21.3,00.0,31.4,24.0,09.7,0000.0,0001.06,0008.73,0000.49
2022-01-04 20:36:00,,0818.0,5.00,0.00,22.3,21.3,00.0,31.4,24.0,10.0,0000.0,0001.11,0008.86,0000.49
2022-01-04 20:37:00,,0818.0,5.01,0.00,22.3,21.2,00.0,31.4,24.0,09.7,0000.0,0001.11,0008.48,0000.48
2022-01-04 20:38:00,,0818.0,5.00,0.00,22.3,21.2,00.0,31.4,24.0,10.0,0000.0,0001.08,0008.36,0000.48
2022-01-04 20:39:00,,0818.0,5.00,0.00,22.3,21.3,00.0,31.4,24.0,09.7,0000.0,0001.05,0008.18,0000.48
2022-01-04 20:40:00,,0818.0,5.00,0.00,22.3,21.3,00.0,31.4,23.9,09.6,0000.0,0001.06,0008.04,0000.48
2022-01-04 20:41:00,,0818.0,5.00,0.00,22.3,21.3,00.0,31.4,24.0,09.9,0000.0,0001.12,0007.51,0000.48
2022-01-04 20:42:00,,0818.1,5.01,0.00,22.3,21.3,00.0,31.4,24.0,10.2,0000.0,0001.10,0006.85,0000.49
2022-01-04 20:43:00,,0818.1,5.00,0.00,22.3,21.2,00.0,31.4,23.9,10.0,0000.0,0001.11,0007.66,0000.48
2022-01-04 20:44:00,,0818.2,5.00,0.00,22.3,21.2,00.0,31.4,23.9,10.1,0000.0,0001.09,0006.86,0000.48
2022-01-04 20:45:00,,0818.2,5.00,0.00,22.3,21.2,00.0,31.4,23.9,09.9,0000.0,0001.05,0006.40,0000.48
2022-01-04 20:46:00,,0818.2,4.99,0.00,22.4,21.3,00.0,31.4,24.0,10.3,0000.0,0001.07,0006.41,0000.47
2022-01-04 20:47:00,,0818.1,5.00,0.00,22.4,21.3,00.0,31.4,24.0,10.1,0000.0,0001.03,0006.07,0000.47
2022-01-04 20:48:00,,0818.1,5.00,0.00,22.4,21.3,00.0,31.4,24.0,09.7,0000.0,0001.03,0005.56,0000.48
2022-01-04 20:49:00,,0818.2,5.00,0.00,22.3,21.4,00.0,31.4,24.0,09.8,0000.0,0001.11,0005.83,0000.49
2022-01-04 20:50:00,,0818.3,5.01,0.00,22.3,21.4,00.0,31.4,23.9,10.1,0000.0,0001.15,0005.87,0000.49
2022-01-04 20:51:00,,0818.3,4.99,0.00,22.3,21.3,00.0,31.4,24.0,10.3,0000.0,0001.17,0005.89,0000.49
2022-01-04 20:52:00,,0818.1,4.99,0.00,22.3,21.3,00.0,31.4,24.0,10.3,0000.0,0001.12,0005.69,0000.49
2022-01-04 20:53:00,,0818.1,5.00,0.00,22.3,21.4,00.0,31.4,24.0,10.4,0000.0,0001.15,0005.73,0000.49
2022-01-04 20:54:00,,0818.0,5.00,0.00,22.3,21.4,00.0,31.4,24.0,10.4,0000.0,0001.13,0004.85,0000.49
2022-01-04 20:55:00,,0817.9,5.00,0.00,22.3,21.4,00.0,31.4,24.0,10.2,0000.0,0001.16,0004.05,0000.49
2022-01-04 20:56:00,,0818.1,5.00,0.00,22.3,21.4,00.0,31.4,24.0,10.2,0000.0,0001.23,0004.87,0000.50
2022-01-04 20:57:00,,0818.3,5.00,0.00,22.3,21.4,00.0,31.4,24.0,10.3,0000.0,0001.27,0005.55,0000.50
2022-01-04 20:58:00,,0818.4,5.00,0.00,22.3,21.4,00.0,31.4,23.9,10.5,0000.0,0001.38,0005.82,0000.50
2022-01-04 20:59:00,,0818.3,4.99,0.00,22.3,21.4,00.0,31.4,23.9,10.2,0000.0,0001.44,0005.87,0000.50
